{"data":{"norad_id":67775,"epoch":"2026-09-19T01:26:24.781920Z","epoch_age_seconds":213405,"freshness":"STALE","line1":"1 67775U 26030M   26262.06000905  .00000073  00000+0  38649-4 0  9994","line2":"2 67775  51.8975  75.5133 0001343 115.6759 244.4342 14.79928338 33843","mean_motion":14.79928338,"eccentricity":0.0001343,"inclination_deg":51.8975,"raan_deg":75.5133,"arg_perigee_deg":115.6759,"mean_anomaly_deg":244.4342,"bstar":3.8649e-5,"rev_number":3384,"period_min":97.302008686856,"perigee_km":628.60921358181,"apogee_km":630.49147840295,"semimajor_km":7007.6873459924,"source":"CELESTRAK","updated_at":"2026-09-21T09:00:16.830001Z"}}